EW8153 Weather Reports


time (UTC)temp
F
wind
direction
speed
knots
gust
knots
rain 1hr
in
rain 24hr
in
rain mn
in
humidity
%
barometer
mb
20260510113524 53 28 2.6 8.7 0.00 0.00 0.00 73 1015.4
20260510113042 53 57 2.6 8.7 0.00 0.00 0.00 73 1015.4
20260510112525 53 9 2.6 8.7 0.00 0.00 0.00 74 1015.6
20260510112027 53 225 2.6 10.4 0.00 0.00 0.00 74 1015.5
20260510111536 53 342 2.6 10.4 0.00 0.00 0.00 74 1015.6
20260510111026 53 59 2.6 7.0 0.00 0.00 0.00 74 1015.5
20260510110524 53 334 2.6 9.6 0.00 0.00 0.00 75 1015.5
20260510110043 53 48 2.6 9.6 0.00 0.00 0.00 75 1015.4
20260510105525 53 300 2.6 10.4 0.00 0.00 0.00 76 1015.5
20260510105026 52 46 2.6 10.4 0.00 0.00 0.00 76 1015.5
20260510104541 52 346 2.6 9.6 0.00 0.00 0.00 76 1015.5
20260510104024 52 111 2.6 10.4 0.00 0.00 0.00 75 1015.5
20260510103524 53 25 3.5 10.4 0.00 0.00 0.00 76 1015.6
20260510103042 53 187 2.6 12.2 0.00 0.00 0.00 76 1015.5
20260510102524 53 38 2.6 12.2 0.00 0.00 0.00 76 1015.6
20260510102026 53 137 2.6 10.4 0.00 0.00 0.00 77 1015.6
20260510101539 53 235 2.6 10.4 0.00 0.00 0.00 77 1015.6
20260510101024 53 72 1.7 9.6 0.00 0.00 0.00 78 1015.6
20260510100527 52 319 2.6 13.0 0.00 0.00 0.00 77 1015.6
20260510100043 52 93 2.6 13.0 0.00 0.00 0.00 79 1015.6
20260510095525 52 83 1.7 8.7 0.00 0.00 0.00 79 1015.6
20260510095023 52 346 1.7 7.0 0.00 0.00 0.00 80 1015.6
20260510094541 52 137 1.7 7.8 0.00 0.00 0.00 80 1015.6
20260510094026 52 40 1.7 7.8 0.00 0.00 0.00 80 1015.7
20260510093525 52 81 2.6 7.8 0.00 0.00 0.00 79 1015.9
20260510093039 53 257 2.6 8.7 0.00 0.00 0.00 79 1015.8
20260510092526 53 120 1.7 9.6 0.00 0.00 0.00 79 1015.8
20260510092027 53 18 1.7 9.6 0.00 0.00 0.00 79 1015.8
20260510091539 53 36 1.7 12.2 0.00 0.00 0.00 80 1015.9
20260510091027 53 123 2.6 12.2 0.00 0.00 0.00 79 1015.9
20260510090525 53 334 2.6 9.6 0.00 0.00 0.00 79 1015.9
20260510090039 53 314 2.6 9.6 0.00 0.00 0.00 79 1015.9
20260510085524 53 57 2.6 8.7 0.00 0.00 0.00 80 1015.8
20260510085026 53 33 2.6 11.3 0.00 0.00 0.00 81 1015.7
20260510084538 53 328 2.6 11.3 0.00 0.00 0.00 81 1015.8
20260510084024 53 265 2.6 11.3 0.00 0.00 0.00 82 1015.8
20260510083527 52 47 1.7 7.8 0.00 0.00 0.00 82 1015.8
20260510083037 52 305 2.6 9.6 0.00 0.00 0.00 83 1015.9
20260510082524 52 51 1.7 9.6 0.00 0.00 0.00 83 1015.8
20260510082024 51 20 1.7 7.8 0.00 0.00 0.00 83 1015.9
20260510081548 51 22 1.7 7.8 0.00 0.00 0.00 83 1016.0
20260510081024 51 61 1.7 7.8 0.00 0.00 0.00 83 1016.0
20260510080524 51 282 1.7 7.8 0.00 0.00 0.00 83 1016.0
20260510080042 50 63 1.7 7.0 0.00 0.00 0.00 83 1016.1
20260510075524 50 142 1.7 7.0 0.00 0.00 0.00 83 1016.1
20260510075023 50 309 1.7 7.0 0.00 0.00 0.00 84 1016.1
20260510074540 50 42 1.7 7.0 0.00 0.00 0.00 84 1016.1
20260510074115 49 31 0.9 7.0 0.00 0.00 0.00 84 1016.1
20260510073525 49 64 1.7 6.1 0.00 0.00 0.00 84 1016.2
20260510073051 49 38 1.7 6.1 0.00 0.00 0.00 84 1016.2
20260510072525 49 59 1.7 9.6 0.00 0.00 0.00 85 1016.2
20260510072024 49 65 1.7 9.6 0.00 0.00 0.00 85 1016.2
20260510071537 49 34 1.7 6.1 0.00 0.00 0.00 85 1016.2
20260510071024 49 103 0.9 5.2 0.00 0.00 0.00 85 1016.2
20260510070524 49 51 1.7 4.3 0.00 0.00 0.00 86 1016.2
20260510070036 49 45 0.9 6.1 0.00 0.00 0.00 86 1016.3
20260510065524 49 9 1.7 6.1 0.00 0.00 0.00 86 1016.2
20260510065023 49 51 0.9 6.1 0.00 0.00 0.00 86 1016.2
20260510064544 49 59 1.7 6.1 0.00 0.00 0.00 86 1016.3
20260510064023 48 34 1.7 8.7 0.00 0.00 0.00 86 1016.3
20260510063524 48 106 1.7 8.7 0.00 0.00 0.00 87 1016.3
20260510063040 48 153 1.7 7.0 0.00 0.00 0.00 87 1016.2
20260510062523 48 75 1.7 7.8 0.00 0.00 0.00 87 1016.2
20260510062023 48 26 1.7 7.8 0.00 0.00 0.00 87 1016.3
20260510061540 48 325 1.7 7.0 0.00 0.00 0.00 88 1016.4
20260510061025 48 44 1.7 7.8 0.00 0.00 0.00 88 1016.2
20260510060524 48 25 1.7 7.8 0.00 0.00 0.00 88 1016.2
20260510060039 48 74 1.7 8.7 0.00 0.00 0.00 88 1016.1
20260510055524 48 48 1.7 8.7 0.00 0.00 0.00 88 1016.2
20260510055024 48 34 1.7 8.7 0.00 0.00 0.00 88 1016.1
20260510054537 48 137 1.7 7.8 0.00 0.00 0.00 88 1016.1
20260510054026 48 80 1.7 7.0 0.00 0.00 0.00 88 1016.0
20260510053523 48 107 1.7 5.2 0.00 0.00 0.00 88 1015.9
20260510053038 48 19 1.7 7.8 0.00 0.00 0.00 88 1015.9
20260510052528 48 0 1.7 7.8 0.00 0.00 0.00 88 1016.1
20260510052024 48 70 1.7 7.8 0.00 0.00 0.00 88 1016.0
20260510051542 48 9 1.7 7.0 0.00 0.00 0.00 88 1016.0
20260510051024 48 80 1.7 8.7 0.00 0.00 0.00 88 1015.9
20260510050526 48 0 2.6 8.7 0.00 0.00 0.00 88 1016.0
20260510050043 48 51 2.6 7.8 0.00 0.00 0.00 89 1015.9
20260510045525 48 265 2.6 7.8 0.00 0.00 0.00 89 1016.0
20260510045025 48 16 2.6 7.8 0.00 0.00 0.00 89 1015.9
20260510044548 48 51 1.7 7.8 0.00 0.00 0.00 89 1015.9
20260510044023 48 48 2.6 7.8 0.00 0.00 0.00 89 1016.0
20260510043524 48 178 1.7 7.0 0.00 0.00 0.00 89 1016.1
20260510043038 48 72 1.7 9.6 0.00 0.00 0.00 89 1015.9
20260510042524 48 257 1.7 9.6 0.00 0.00 0.00 89 1016.0
20260510042024 48 101 1.7 7.0 0.00 0.00 0.00 89 1016.0
20260510041537 48 59 1.7 7.0 0.00 0.00 0.00 89 1016.0
20260510041028 48 298 1.7 8.7 0.00 0.00 0.00 89 1016.0
20260510040524 49 17 1.7 8.7 0.00 0.00 0.00 88 1016.0
20260510040039 49 221 1.7 8.7 0.00 0.00 0.00 88 1016.0
20260510035524 49 59 1.7 7.8 0.00 0.00 0.00 88 1016.0
20260510035024 49 88 1.7 7.8 0.00 0.00 0.00 88 1016.1
20260510034537 49 93 1.7 7.8 0.00 0.00 0.00 88 1016.1
20260510034024 49 57 1.7 7.8 0.00 0.00 0.00 88 1016.2
20260510033523 49 321 0.9 7.8 0.00 0.00 0.00 87 1016.2
20260510033039 50 338 1.7 7.8 0.00 0.00 0.00 87 1016.2
20260510032527 50 247 1.7 8.7 0.00 0.00 0.00 87 1016.2
20260510032024 50 78 1.7 8.7 0.00 0.00 0.00 87 1016.2
20260510031550 50 55 1.7 9.6 0.00 0.00 0.00 86 1016.2
20260510031024 50 9 1.7 9.6 0.00 0.00 0.00 86 1016.1
20260510030523 50 330 1.7 7.0 0.00 0.00 0.00 85 1016.1
20260510030039 50 43 1.7 7.0 0.00 0.00 0.00 84 1016.0
20260510025524 50 41 1.7 5.2 0.00 0.00 0.00 83 1016.0
20260510025023 50 97 1.7 7.8 0.00 0.00 0.00 83 1016.2
20260510024539 50 34 1.7 7.8 0.00 0.00 0.00 82 1016.1
20260510024024 50 338 1.7 7.8 0.00 0.00 0.00 82 1016.2
20260510023524 50 38 2.6 7.8 0.00 0.00 0.00 81 1016.1
20260510023036 50 57 1.7 7.8 0.00 0.00 0.00 81 1016.1
20260510022524 50 71 1.7 7.8 0.00 0.00 0.00 81 1016.1
20260510022024 50 54 1.7 8.7 0.00 0.00 0.00 81 1016.2
20260510021540 51 336 1.7 8.7 0.00 0.00 0.00 80 1016.2
20260510021023 51 43 0.9 7.0 0.00 0.00 0.00 80 1016.2
20260510020524 51 105 0.9 7.8 0.00 0.00 0.00 79 1016.4
20260510020038 51 19 1.7 7.8 0.00 0.00 0.00 78 1016.4
20260510015524 51 59 1.7 7.8 0.00 0.00 0.00 78 1016.4
20260510015026 51 317 1.7 7.0 0.00 0.00 0.00 77 1016.5
20260510014540 51 110 1.7 7.0 0.00 0.00 0.00 77 1016.5
20260510014027 51 61 1.7 7.8 0.00 0.00 0.00 77 1016.5
20260510013524 51 13 0.9 7.8 0.00 0.00 0.00 76 1016.4
20260510013038 51 31 1.7 7.0 0.00 0.00 0.00 76 1016.5
20260510012523 51 20 1.7 7.0 0.00 0.00 0.00 75 1016.5
20260510012125 51 93 2.6 9.6 0.00 0.00 0.00 75 1016.5
20260510011538 51 9 1.7 9.6 0.00 0.00 0.00 75 1016.5
20260510011023 51 99 2.6 9.6 0.00 0.00 0.00 74 1016.5
20260510010524 51 110 1.7 7.0 0.00 0.00 0.00 74 1016.4
20260510010038 51 54 2.6 10.4 0.00 0.00 0.00 73 1016.3
20260510005524 52 265 1.7 10.4 0.00 0.00 0.00 72 1016.4
20260510005024 52 26 1.7 10.4 0.00 0.00 0.00 72 1016.5
20260510004536 52 38 1.7 11.3 0.00 0.00 0.00 71 1016.4
20260510004024 52 42 1.7 11.3 0.00 0.00 0.00 71 1016.5
20260510003524 52 83 2.6 11.3 0.00 0.00 0.00 70 1016.5
20260510003036 52 273 2.6 7.8 0.00 0.00 0.00 69 1016.5
20260510002523 52 61 2.6 7.8 0.00 0.00 0.00 69 1016.5
20260510002023 52 63 2.6 7.8 0.00 0.00 0.00 69 1016.4
20260510001539 52 21 1.7 7.0 0.00 0.00 0.00 68 1016.5
20260510001026 52 51 1.7 7.0 0.00 0.00 0.00 68 1016.5
20260510000524 52 51 1.7 7.0 0.00 0.00 0.00 68 1016.5
20260510000040 52 93 1.7 8.7 0.00 0.00 0.00 68 1016.6
20260509235523 52 43 1.7 8.7 0.00 0.00 0.00 68 1016.7
20260509235024 52 11 1.7 6.1 0.00 0.00 0.00 68 1016.6
20260509234539 52 47 2.6 7.8 0.00 0.00 0.00 68 1016.7
20260509234024 52 244 1.7 7.8 0.00 0.00 0.00 67 1016.8
20260509233526 52 90 1.7 7.8 0.00 0.00 0.00 67 1016.7
20260509233035 52 51 1.7 7.8 0.00 0.00 0.00 66 1016.7
20260509232523 52 9 2.6 7.8 0.00 0.00 0.00 66 1016.7
20260509232024 52 59 1.7 7.8 0.00 0.00 0.00 66 1016.7
20260509231537 52 80 1.7 7.8 0.00 0.00 0.00 65 1016.8
20260509231023 52 24 2.6 7.8 0.00 0.00 0.00 64 1016.7
20260509230524 52 19 1.7 7.8 0.00 0.00 0.00 64 1016.8
20260509230036 52 40 2.6 7.8 0.00 0.00 0.00 63 1016.9
20260509225524 52 36 1.7 7.0 0.00 0.00 0.00 63 1016.8
20260509225025 52 83 1.7 7.0 0.00 0.00 0.00 62 1016.9
20260509224550 53 26 0.9 7.8 0.00 0.00 0.00 61 1016.7
20260509224024 53 30 1.7 7.8 0.00 0.00 0.00 60 1016.7
20260509223524 53 257 1.7 7.0 0.00 0.00 0.00 60 1016.7
20260509223039 53 338 1.7 7.0 0.00 0.00 0.00 59 1016.7
20260509222526 53 47 2.6 8.7 0.00 0.00 0.00 59 1016.7
20260509222023 53 26 1.7 8.7 0.00 0.00 0.00 58 1016.8
20260509221547 53 23 1.7 7.0 0.00 0.00 0.00 58 1016.7
20260509221027 53 178 1.7 8.7 0.00 0.00 0.00 57 1016.7
20260509220523 53 59 1.7 8.7 0.00 0.00 0.00 57 1016.7
20260509220039 53 40 1.7 7.8 0.00 0.00 0.00 57 1016.7
20260509215524 53 46 0.9 7.8 0.00 0.00 0.00 57 1016.8
20260509215022 53 26 1.7 6.1 0.00 0.00 0.00 57 1016.7
20260509214537 53 255 1.7 7.0 0.00 0.00 0.00 56 1016.8
20260509214023 53 72 0.9 8.7 0.00 0.00 0.00 56 1016.8
20260509213524 53 71 1.7 8.7 0.00 0.00 0.00 56 1016.8
20260509213043 53 48 1.7 7.8 0.00 0.00 0.00 57 1016.8
20260509212524 53 63 1.7 7.8 0.00 0.00 0.00 56 1016.8
20260509212023 53 9 1.7 10.4 0.00 0.00 0.00 57 1016.7
20260509211539 53 66 1.7 10.4 0.00 0.00 0.00 57 1016.7
20260509211023 53 54 2.6 8.7 0.00 0.00 0.00 57 1016.7
20260509210526 53 178 1.7 6.1 0.00 0.00 0.00 57 1016.7
20260509210038 53 346 1.7 8.7 0.00 0.00 0.00 58 1016.7
20260509205523 53 104 1.7 8.7 0.00 0.00 0.00 58 1016.6
20260509205023 53 233 1.7 7.0 0.00 0.00 0.00 58 1016.6
20260509204537 53 63 1.7 8.7 0.00 0.00 0.00 59 1016.6
20260509204022 53 133 1.7 8.7 0.00 0.00 0.00 59 1016.4
20260509203522 53 51 1.7 7.0 0.00 0.00 0.00 60 1016.3
20260509203036 53 334 1.7 6.1 0.00 0.00 0.00 60 1016.4
20260509202524 53 239 1.7 6.1 0.00 0.00 0.00 60 1016.4
20260509202026 53 334 1.7 6.1 0.00 0.00 0.00 61 1016.3
20260509201546 54 51 0.9 6.1 0.00 0.00 0.00 60 1016.2
20260509201023 54 61 1.7 6.1 0.00 0.00 0.00 60 1016.1
20260509200523 54 338 1.7 7.0 0.00 0.00 0.00 60 1016.1
20260509200050 54 72 1.7 7.0 0.00 0.00 0.00 60 1016.0
20260509195525 54 9 1.7 4.3 0.00 0.00 0.00 60 1016.1
20260509195023 55 200 1.7 5.2 0.00 0.00 0.00 59 1016.1
20260509194539 55 319 1.7 5.2 0.00 0.00 0.00 58 1016.2
20260509194023 55 292 0.9 5.2 0.00 0.00 0.00 57 1016.1
20260509193522 56 74 1.7 5.2 0.00 0.00 0.00 57 1016.2
20260509193037 56 329 1.7 5.2 0.00 0.00 0.00 56 1016.2
20260509192523 56 30 1.7 5.2 0.00 0.00 0.00 56 1016.1
20260509192023 57 68 0.9 9.6 0.00 0.00 0.00 56 1016.1
20260509191537 57 76 1.7 9.6 0.00 0.00 0.00 55 1016.2
20260509191024 57 82 2.6 9.6 0.00 0.00 0.00 54 1016.2
20260509190524 58 252 1.7 7.8 0.00 0.00 0.00 54 1016.2
20260509190050 58 141 1.7 7.0 0.00 0.00 0.00 53 1016.1
20260509185524 58 298 1.7 7.0 0.00 0.00 0.00 54 1016.2
20260509185025 59 282 1.7 7.0 0.00 0.00 0.00 54 1016.1
20260509184539 59 239 1.7 5.2 0.00 0.00 0.00 56 1016.2
20260509184023 59 338 0.9 6.1 0.00 0.00 0.00 55 1016.2
20260509183523 60 76 1.7 8.7 0.00 0.00 0.00 55 1016.1
20260509183040 60 273 1.7 8.7 0.00 0.00 0.00 55 1015.9
20260509182523 61 38 1.7 8.7 0.00 0.00 0.00 55 1015.8
20260509182023 61 103 2.6 8.7 0.00 0.00 0.00 56 1015.7
20260509181539 61 51 1.7 7.0 0.00 0.00 0.00 57 1015.8
20260509181023 62 51 1.7 7.8 0.00 0.00 0.00 56 1015.8
20260509180522 62 74 1.7 7.8 0.00 0.00 0.00 55 1015.8
20260509180036 62 334 1.7 7.8 0.00 0.00 0.00 55 1015.8
20260509175523 63 301 1.7 7.8 0.00 0.00 0.00 55 1015.8
20260509175024 63 126 1.7 8.7 0.00 0.00 0.00 55 1015.8
20260509174537 63 117 1.7 8.7 0.00 0.00 0.00 55 1015.8
20260509174022 63 76 1.7 8.7 0.00 0.00 0.00 53 1015.9
20260509173523 64 162 0.9 6.1 0.00 0.00 0.00 54 1015.7
20260509173039 64 42 1.7 6.1 0.00 0.00 0.00 53 1015.6
20260509172524 64 273 1.7 6.1 0.00 0.00 0.00 53 1015.7
20260509172024 65 68 1.7 7.8 0.00 0.00 0.00 53 1015.6
20260509171543 65 98 1.7 7.8 0.00 0.00 0.00 52 1015.6
20260509171023 66 45 1.7 9.6 0.00 0.00 0.00 52 1015.6
20260509170526 66 57 2.6 9.6 0.00 0.00 0.00 50 1015.6
20260509170038 67 9 1.7 8.7 0.00 0.00 0.00 49 1015.6
20260509165525 68 103 1.7 8.7 0.00 0.00 0.00 48 1015.6
20260509165026 68 45 1.7 7.8 0.00 0.00 0.00 48 1015.7
20260509164547 68 68 0.9 8.7 0.00 0.00 0.00 46 1015.6
20260509164026 68 83 2.6 8.7 0.00 0.00 0.00 43 1015.6
20260509163527 69 68 2.6 7.8 0.00 0.00 0.00 43 1015.6
20260509163039 69 90 1.7 7.8 0.00 0.00 0.00 43 1015.6
20260509162524 69 51 1.7 8.7 0.00 0.00 0.00 43 1015.6
20260509162023 69 51 1.7 8.7 0.00 0.00 0.00 43 1015.6
20260509161541 69 298 2.6 8.7 0.00 0.00 0.00 44 1015.6
20260509161024 69 76 1.7 11.3 0.00 0.00 0.00 44 1015.7
20260509160523 69 9 4.3 11.3 0.00 0.00 0.00 43 1015.6
20260509160039 69 105 3.5 10.4 0.00 0.00 0.00 43 1015.6
20260509155523 69 120 3.5 10.4 0.00 0.00 0.00 42 1015.6
20260509155023 69 49 4.3 10.4 0.00 0.00 0.00 43 1015.6
20260509154538 70 74 4.3 10.4 0.00 0.00 0.00 43 1015.6
20260509154024 70 92 2.6 12.2 0.00 0.00 0.00 43 1015.7
20260509153523 69 121 4.3 12.2 0.00 0.00 0.00 42 1015.8
20260509153035 70 79 3.5 10.4 0.00 0.00 0.00 43 1015.7
20260509152523 70 106 4.3 10.4 0.00 0.00 0.00 42 1015.9
20260509152023 70 47 3.5 13.0 0.00 0.00 0.00 44 1016.0
20260509151543 70 107 4.3 13.0 0.00 0.00 0.00 44 1016.1
20260509151023 70 106 3.5 10.4 0.00 0.00 0.00 43 1016.3
20260509150523 70 99 4.3 11.3 0.00 0.00 0.00 44 1016.2
20260509150037 70 57 3.5 11.3 0.00 0.00 0.00 43 1016.2
20260509145523 70 108 5.2 11.3 0.00 0.00 0.00 43 1016.3
20260509145023 70 83 5.2 11.3 0.00 0.00 0.00 44 1016.3
20260509144539 71 134 4.3 10.4 0.00 0.00 0.00 44 1016.4
20260509144023 71 360 5.2 10.4 0.00 0.00 0.00 44 1016.4
20260509143523 71 101 4.3 12.2 0.00 0.00 0.00 43 1016.4
20260509143038 71 51 5.2 12.2 0.00 0.00 0.00 43 1016.2
20260509142523 71 139 2.6 10.4 0.00 0.00 0.00 45 1016.3
20260509142024 71 72 3.5 10.4 0.00 0.00 0.00 45 1016.3
20260509141537 71 149 4.3 12.2 0.00 0.00 0.00 45 1016.2
20260509141025 70 93 1.7 12.2 0.00 0.00 0.00 45 1016.1
20260509140522 70 29 2.6 12.2 0.00 0.00 0.00 44 1016.0
20260509140037 70 128 4.3 12.2 0.00 0.00 0.00 43 1016.0
20260509135523 71 93 6.1 11.3 0.00 0.00 0.00 43 1016.0
20260509135024 71 142 6.1 11.3 0.00 0.00 0.00 42 1016.0
20260509134557 71 98 4.3 11.3 0.00 0.00 0.00 43 1015.9
20260509134022 71 87 4.3 11.3 0.00 0.00 0.00 42 1015.9
20260509133522 71 137 4.3 12.2 0.00 0.00 0.00 42 1016.1
20260509133038 71 104 3.5 12.2 0.00 0.00 0.00 43 1016.1
20260509132523 71 80 4.3 12.2 0.00 0.00 0.00 42 1016.0
20260509132023 71 110 5.2 12.2 0.00 0.00 0.00 42 1016.2
20260509131548 71 74 3.5 11.3 0.00 0.00 0.00 43 1016.3
20260509131023 71 55 2.6 11.3 0.00 0.00 0.00 45 1016.4
20260509130523 71 83 4.3 11.3 0.00 0.00 0.00 43 1016.5
20260509130041 71 71 2.6 11.3 0.00 0.00 0.00 41 1016.3
20260509125523 71 30 1.7 7.8 0.00 0.00 0.00 43 1016.4
20260509125023 71 71 1.7 12.2 0.00 0.00 0.00 45 1016.4
20260509124536 71 51 1.7 12.2 0.00 0.00 0.00 46 1016.2
20260509124023 70 78 3.5 12.2 0.00 0.00 0.00 43 1016.2
20260509123523 70 56 4.3 10.4 0.00 0.00 0.00 44 1016.3
20260509123036 71 79 1.7 10.4 0.00 0.00 0.00 45 1016.4
20260509122525 70 84 3.5 11.3 0.00 0.00 0.00 45 1016.5
20260509122023 70 138 2.6 11.3 0.00 0.00 0.00 46 1016.5
20260509121539 70 309 3.5 9.6 0.00 0.00 0.00 46 1016.6
20260509121023 70 265 1.7 9.6 0.00 0.00 0.00 49 1016.6
20260509120523 69 108 1.7 12.2 0.00 0.00 0.00 48 1016.6
20260509120038 69 11 3.5 12.2 0.00 0.00 0.00 47 1016.7
20260509115523 69 313 1.7 8.7 0.00 0.00 0.00 47 1016.7
20260509115027 69 41 1.7 12.2 0.00 0.00 0.00 48 1016.8
20260509114543 69 140 4.3 12.2 0.00 0.00 0.00 47 1016.7
20260509114023 69 92 5.2 12.2 0.00 0.00 0.00 46 1016.8